Location: Lecco
(45.8566°N, 9.3977°E)
Time: 15:29:28
(UTC+02:00)

OTV 5 (USA 277) - Pass Details

Date: 16 June 2019
Orbit: 305 x 329 km, 54.5° (Epoch: 11 August)

Event Time Altitude Azimuth Distance (km) Brightness Sun altitude
Exits shadow 01:52:56 43° 347° (NNW) 477 ? -20.5°
Drops below altitude 10° 01:55:25 10° 46° (NE) 1,261 ? -20.4°
Enters shadow 02:53:07 -64° 248° (WSW) 11,843 ? -17.8°
